Location: Im Fang
(46.6019°N, 7.2397°E)
Time: 08:29:20
(UTC+00:00)

Okean 3 - Pass Details

Date: 08 December 2019
Orbit: 577 x 601 km, 82.5° (Epoch: 17 January)

Event Time Altitude Azimuth Distance (km) Brightness Sun altitude
Exits shadow 05:43:41 - 350° (N) 2,845 6.7 -12.8°
Rises 05:43:46 0° 350° (N) 2,805 6.6 -12.8°
Reaches altitude 10° 05:45:58 10° 351° (N) 1,902 5.8 -12.5°
Maximum altitude 05:50:10 90° 290° (WNW) 587 3.4 -11.8°
Drops below altitude 10° 05:54:22 10° 173° (S) 1,894 6.4 -11.1°
Sets 05:56:33 0° 173° (S) 2,792 7.3 -10.8°
